#timestamp,LO_Frequency,Hit,Temp,Hum 
1488042015.1,286047031.6,N,0.0,0.0
1488042016.0,286047031.6,N,0.0,0.0
1488042035.8,286047032.1,N,0.0,0.0
1488042055.6,286047032.7,N,0.0,0.0
1488042075.5,286047031.8,N,0.0,0.0
1488042095.3,286047033.4,N,0.0,0.0
1488042115.1,286047032.3,N,0.0,0.0
1488042135.9,286047032.6,N,0.0,0.0
1488042155.7,286047033.2,N,0.0,0.0
1488042175.5,286047032.2,N,0.0,0.0
1488042195.3,286047037.0,N,0.0,0.0
1488042215.2,286047036.9,N,0.0,0.0
1488042235.0,286047039.0,N,0.0,0.0
1488042235.9,286047039.0,N,0.0,0.0
1488042255.7,286047038.9,N,0.0,0.0
1488042275.6,286047034.9,N,0.0,0.0
1488042295.4,286047041.1,N,0.0,0.0
1488042315.2,286047041.1,N,0.0,0.0
1488042335.1,286047039.3,N,0.0,0.0
1488042336.0,286047039.3,N,0.0,0.0
1488042355.8,286047040.5,N,0.0,0.0
1488042375.6,286047044.2,N,0.0,0.0
1488042395.5,286047042.4,N,0.0,0.0
1488042415.3,286047041.8,N,0.0,0.0
1488042435.1,286047042.4,N,0.0,0.0
1488042455.9,286047043.4,N,0.0,0.0
1488042475.7,286047046.0,N,0.0,0.0
1488042495.5,286047044.5,N,0.0,0.0
1488042515.4,286047046.2,N,0.0,0.0
1488042535.2,286047048.1,N,0.0,0.0
1488042555.0,286047050.7,N,0.0,0.0
1488042555.9,286047050.7,N,0.0,0.0
1488042575.8,286047051.1,N,0.0,0.0
1488042595.6,286047050.9,N,0.0,0.0
1488042615.4,286047053.4,N,0.0,0.0
1488042635.3,286047054.5,N,0.0,0.0
1488042655.1,286047055.5,N,0.0,0.0
1488042656.0,286047055.5,N,0.0,0.0
1488042675.8,286047055.5,N,0.0,0.0
1488042695.7,286047056.7,N,0.0,0.0
1488042715.5,286047054.1,N,0.0,0.0
1488042735.3,286047054.4,N,0.0,0.0
1488042755.2,286047054.1,N,0.0,0.0
1488042775.9,286047056.6,N,0.0,0.0
1488042795.7,286047052.5,N,0.0,0.0
1488042815.5,286047052.9,N,0.0,0.0
1488042835.4,286047052.5,N,0.0,0.0
1488042855.2,286047052.6,N,0.0,0.0
1488042875.0,286047054.7,N,0.0,0.0
1488042875.9,286047054.7,N,0.0,0.0
1488042895.8,286047054.6,N,0.0,0.0
1488042915.6,286047055.0,N,0.0,0.0
1488042935.4,286047056.6,N,0.0,0.0
1488042955.3,286047054.8,N,0.0,0.0
1488042975.1,286047052.5,N,0.0,0.0
1488042995.8,286047054.5,N,0.0,0.0
1488043015.7,286047054.3,N,0.0,0.0
1488043035.5,286047054.4,N,0.0,0.0
1488043055.3,286047054.1,N,0.0,0.0
1488043075.2,286047058.7,N,0.0,0.0
1488043095.9,286047056.1,N,0.0,0.0
1488043115.7,286047060.2,N,0.0,0.0
1488043135.6,286047059.9,N,0.0,0.0
1488043155.4,286047058.9,N,0.0,0.0
1488043175.2,286047060.4,N,0.0,0.0
1488043195.1,286047061.7,N,0.0,0.0
1488043196.0,286047061.7,N,0.0,0.0
1488043215.8,286047061.2,N,0.0,0.0
1488043235.6,286047062.4,N,0.0,0.0
1488043255.5,286047065.2,N,0.0,0.0
1488043275.3,286047065.0,N,0.0,0.0
1488043295.1,286047064.3,N,0.0,0.0
1488043315.9,286047063.9,N,0.0,0.0
1488043335.7,286047063.8,N,0.0,0.0
1488043355.5,286047066.0,N,0.0,0.0
1488043375.4,286047065.8,N,0.0,0.0
1488043395.2,286047066.6,N,0.0,0.0
1488043415.0,286047065.3,N,0.0,0.0
1488043415.9,286047065.3,N,0.0,0.0
1488043435.8,286047065.3,N,0.0,0.0
1488043455.6,286047067.4,N,0.0,0.0
1488043475.4,286047067.4,N,0.0,0.0
1488043495.2,286047068.6,N,0.0,0.0
1488043515.1,286047069.8,N,0.0,0.0
1488043516.0,286047069.8,N,0.0,0.0
1488043535.8,286047071.6,N,0.0,0.0
1488043555.6,286047070.1,N,0.0,0.0
1488043575.5,286047069.4,N,0.0,0.0
1488043595.3,286047069.7,N,0.0,0.0
1488043615.1,286047068.7,N,0.0,0.0
1488043635.9,286047071.0,N,0.0,0.0
1488043655.7,286047070.8,N,0.0,0.0
1488043675.5,286047070.3,N,0.0,0.0
1488043695.4,286047072.5,N,0.0,0.0
1488043715.2,286047072.6,N,0.0,0.0
1488043735.0,286047073.0,N,0.0,0.0
1488043735.9,286047073.0,N,0.0,0.0
1488043755.8,286047073.8,N,0.0,0.0
1488043775.6,286047073.5,N,0.0,0.0
1488043795.4,286047076.3,N,0.0,0.0
1488043815.3,286047074.5,N,0.0,0.0
1488043835.1,286047073.7,N,0.0,0.0
1488043855.8,286047075.9,N,0.0,0.0
1488043875.7,286047075.6,N,0.0,0.0
1488043895.5,286047076.4,N,0.0,0.0
1488043915.3,286047076.8,N,0.0,0.0
1488043935.2,286047079.6,N,0.0,0.0
1488043955.9,286047077.0,N,0.0,0.0
1488043975.7,286047081.5,N,0.0,0.0
1488043995.6,286047080.5,N,0.0,0.0
1488044015.4,286047080.9,N,0.0,0.0
1488044035.2,286047082.1,N,0.0,0.0
1488044055.1,286047078.2,N,0.0,0.0
1488044056.0,286047078.2,N,0.0,0.0
1488044075.8,286047078.4,N,0.0,0.0
1488044095.6,286047079.7,N,0.0,0.0
1488044115.4,286047082.8,N,0.0,0.0
1488044135.3,286047085.1,N,0.0,0.0
1488044155.1,286047085.4,N,0.0,0.0
1488044175.8,286047084.1,N,0.0,0.0
1488044195.7,286047086.4,N,0.0,0.0
1488044215.5,286047085.2,N,0.0,0.0
1488044235.3,286047088.0,N,0.0,0.0
1488044255.2,286047086.2,N,0.0,0.0
1488044275.0,286047089.1,N,0.0,0.0
1488044275.9,286047089.1,N,0.0,0.0
1488044295.7,286047086.7,N,0.0,0.0
1488044315.6,286047088.9,N,0.0,0.0
1488044335.4,286047087.4,N,0.0,0.0
1488044355.2,286047089.2,N,0.0,0.0
1488044375.1,286047088.4,N,0.0,0.0
1488044376.0,286047088.4,N,0.0,0.0
1488044395.8,286047090.6,N,0.0,0.0
1488044415.6,286047087.8,N,0.0,0.0
1488044435.5,286047091.6,N,0.0,0.0
1488044455.3,286047093.5,N,0.0,0.0
1488044475.1,286047091.5,N,0.0,0.0
1488044495.9,286047089.3,N,0.0,0.0
1488044515.7,286047091.3,N,0.0,0.0
1488044535.5,286047091.2,N,0.0,0.0
1488044555.4,286047093.1,N,0.0,0.0
1488044575.2,286047094.5,N,0.0,0.0
1488044595.0,286047098.2,N,0.0,0.0
1488044595.9,286047098.2,N,0.0,0.0
1488044615.8,286047094.2,N,0.0,0.0
1488044635.6,286047097.0,N,0.0,0.0
1488044655.4,286047096.8,N,0.0,0.0
1488044675.3,286047096.7,N,0.0,0.0
1488044695.1,286047096.7,N,0.0,0.0
1488044696.0,286047096.7,N,0.0,0.0
1488044715.8,286047098.8,N,0.0,0.0
1488044735.7,286047098.8,N,0.0,0.0
1488044755.5,286047098.0,N,0.0,0.0
1488044775.3,286047099.6,N,0.0,0.0
1488044795.2,286047099.5,N,0.0,0.0
1488044815.9,286047101.7,N,0.0,0.0
1488044835.7,286047101.3,N,0.0,0.0
1488044855.5,286047103.0,N,0.0,0.0
1488044875.4,286047100.6,N,0.0,0.0
1488044895.2,286047100.5,N,0.0,0.0
1488044915.0,286047102.9,N,0.0,0.0
1488044915.9,286047102.9,N,0.0,0.0
1488044935.8,286047106.8,N,0.0,0.0
1488044955.6,286047105.9,N,0.0,0.0
1488044975.4,286047106.3,N,0.0,0.0
1488044995.3,286047106.1,N,0.0,0.0
1488045015.1,286047105.8,N,0.0,0.0
1488045035.8,286047107.9,N,0.0,0.0
1488045055.7,286047107.3,N,0.0,0.0
1488045075.5,286047111.5,N,0.0,0.0
1488045095.3,286047109.2,N,0.0,0.0
1488045115.2,286047108.7,N,0.0,0.0
1488045135.9,286047110.8,N,0.0,0.0
1488045155.7,286047110.4,N,0.0,0.0
1488045175.6,286047112.5,N,0.0,0.0
1488045195.4,286047114.9,N,0.0,0.0
1488045215.2,286047113.7,N,0.0,0.0
1488045235.1,286047111.8,N,0.0,0.0
1488045236.0,286047111.8,N,0.0,0.0
1488045255.8,286047113.0,N,0.0,0.0
1488045275.6,286047113.3,N,0.0,0.0
1488045295.5,286047113.3,N,0.0,0.0
1488045315.3,286047113.7,N,0.0,0.0
1488045335.1,286047117.8,N,0.0,0.0
1488045355.9,286047115.0,N,0.0,0.0
1488045375.7,286047117.0,N,0.0,0.0
1488045395.5,286047116.7,N,0.0,0.0
1488045415.4,286047116.5,N,0.0,0.0
1488045435.2,286047117.0,N,0.0,0.0
1488045455.0,286047118.0,N,0.0,0.0
1488045455.9,286047118.0,N,0.0,0.0
1488045475.8,286047116.5,N,0.0,0.0
1488045495.6,286047116.4,N,0.0,0.0
1488045515.4,286047113.7,N,0.0,0.0
1488045535.2,286047115.4,N,0.0,0.0
1488045555.1,286047114.9,N,0.0,0.0
1488045556.0,286047114.9,N,0.0,0.0
1488045575.8,286047117.2,N,0.0,0.0
1488045595.6,286047118.9,N,0.0,0.0
